Wind_Speed
5 5 5 5 5 6 7 7 8 8 7 7 6 5 3 3 3 4 4 5 6 7 6 6 4 3 2 2 2 3 3 3 4 4 4 4 5 5 5 5 5 5 5
6 6 6 6 6 7 7 8 9 9 9 8 8 7 5 4 4 3 3 4 4 5 6 5 5 3 2 1 1 1 2 2 2 2 2 3 3 4 4 5 5 4 4
7 7 7 7 7 7 8 9 10 10 10 10 9 9 8 7 6 5 5 4 4 4 4 4 4 4 3 2 1 1 1 1 1 1 1 1 2 2 2 3 3 4 4
7 7 7 7 7 8 9 9 10 10 11 11 11 10 9 9 8 8 7 6 5 4 4 3 3 3 3 2 2 2 2 2 2 2 2 1 0 1 1 2 3 3 4
7 7 7 7 8 9 9 10 11 11 12 12 12 12 11 11 11 11 10 10 9 8 7 6 5 4 4 3 3 3 2 2 3 3 3 3 3 2 2 3 3 4 4
7 7 7 7 8 9 10 10 11 12 12 13 13 13 13 13 13 13 13 13 12 11 10 9 9 7 6 6 5 5 4 4 3 3 4 4 5 5 5 5 5 6 6
9 8 7 8 9 9 10 11 12 12 13 14 14 15 15 16 16 16 16 16 15 15 14 13 12 11 10 9 9 8 8 7 6 5 6 6 6 6 7 7 7 7 8
8 8 8 9 10 11 11 12 13 14 15 15 16 17 17 18 18 19 19 19 18 18 18 17 16 15 14 13 13 12 11 11 10 9 9 9 9 9 9 9 9 9 10
9 9 10 11 12 13 13 14 15 16 17 18 19 20 20 21 21 21 22 22 22 21 21 20 19 18 18 17 17 16 16 15 14 14 13 12 12 12 12 12 11 11 11
12 12 13 14 16 17 17 18 19 20 21 22 23 24 24 24 25 25 25 25 25 25 24 23 22 22 21 20 20 19 19 18 18 17 17 16 16 16 15 15 15 14 14
15 16 17 19 20 21 22 23 24 25 25 26 27 28 29 29 29 29 29 29 29 28 27 26 25 25 24 23 23 22 21 21 20 20 20 19 18 19 19 18 18 17 17
18 20 22 23 24 25 27 27 28 29 29 29 31 32 33 33 34 33 33 33 32 31 30 29 28 27 26 26 25 24 23 22 22 22 22 21 21 20 20 20 21 20 19
22 24 25 26 27 28 29 30 30 32 32 32 32 33 34 35 36 36 36 36 36 35 33 32 31 29 28 28 27 25 24 23 23 23 23 22 21 20 21 22 22 22 22
25 25 27 28 29 30 31 32 33 33 33 34 34 34 35 36 37 38 38 39 39 38 36 35 33 32 30 29 27 26 24 23 24 23 22 21 20 20 20 20 21 22 23
27 28 29 31 32 32 33 34 34 33 33 33 32 33 35 37 38 39 39 40 41 40 39 37 35 34 32 30 28 26 24 23 23 23 22 21 20 20 20 20 21 21 23
29 31 31 33 34 34 34 35 34 34 33 33 33 34 36 36 37 39 40 39 40 41 41 40 37 35 33 32 30 27 25 24 23 22 23 22 21 21 21 20 20 21 21
31 33 34 36 37 37 37 37 36 35 33 33 34 34 35 35 35 36 38 38 39 41 42 41 37 35 35 33 30 28 26 25 24 23 23 22 22 21 21 19 19 19 20
33 35 37 38 39 40 40 40 38 36 35 33 32 33 33 33 34 36 37 37 39 40 40 39 38 37 36 34 31 28 26 26 25 24 23 23 22 21 20 19 19 19 19
35 37 39 40 42 42 43 42 39 38 36 34 32 32 32 31 32 35 35 34 36 39 38 39 39 37 35 34 32 30 28 26 25 25 24 22 22 21 20 19 18 18 18
37 39 41 43 44 44 44 42 41 39 38 37 35 34 33 32 32 34 34 33 34 35 36 38 38 37 36 34 33 31 28 27 26 25 24 23 22 21 20 19 17 17 17
39 41 43 44 44 43 43 42 41 40 39 38 37 37 35 34 33 34 33 33 34 35 36 37 37 37 37 35 33 31 30 28 27 25 24 24 23 22 20 18 17 16 16
39 40 41 41 40 40 40 40 40 40 40 40 39 39 37 35 34 33 32 32 33 33 34 34 37 38 37 35 34 32 30 29 27 26 25 25 24 22 21 19 17 16 16
36 37 38 38 38 39 40 40 41 41 41 41 41 40 38 37 35 35 33 32 33 32 33 34 35 37 36 35 35 32 30 30 28 27 26 26 25 23 22 20 18 17 16
34 36 37 38 39 40 42 43 43 44 45 45 44 43 41 40 38 36 36 35 35 34 33 33 34 36 35 35 34 32 31 30 29 29 28 27 26 25 23 22 20 18 17
36 38 40 41 42 43 45 46 47 48 48 48 47 46 45 44 42 40 38 36 36 37 36 35 34 36 36 36 35 34 32 32 32 31 30 29 28 27 25 24 22 19 18
39 41 42 43 45 47 48 49 50 51 51 51 50 49 48 47 46 44 42 41 39 40 40 39 37 38 38 37 37 35 34 34 34 34 33 32 31 29 27 26 24 21 19
Wind_Direction
274 279 282 286 293 300 306 309 309 306 304 304 308 318 329 346 6 21 34 42 45 45 45 45 49 53 55 53 51 52 57 62 65 69 76 85 93 97 109 119 121 118 116
285 287 288 292 296 298 301 303 303 303 302 301 300 302 305 306 317 332 349 8 25 34 37 37 37 43 47 49 44 31 33 45 55 66 78 89 96 100 106 116 125 126 125
287 291 292 298 303 302 300 299 299 299 300 299 296 294 293 293 297 303 309 322 340 2 18 23 22 25 29 27 7 338 319 325 347 7 44 81 100 109 119 130 138 143 145
287 294 298 306 312 311 305 300 297 296 296 295 291 289 287 287 289 293 295 297 301 308 320 337 348 350 354 360 356 341 312 290 288 291 299 310 279 183 177 179 179 175 176
288 293 298 310 315 314 308 301 296 294 293 291 289 288 288 287 287 289 290 289 289 288 290 294 300 306 310 317 322 322 316 303 289 283 281 278 275 266 246 228 218 211 203
289 292 299 310 313 311 305 299 296 295 294 293 291 290 290 289 288 288 287 284 282 281 280 281 283 284 284 286 288 291 292 292 287 281 277 274 270 264 258 248 237 229 221
291 295 302 307 307 304 301 299 299 299 297 296 295 294 293 292 290 289 286 282 278 276 274 274 275 275 273 273 272 272 273 274 273 270 268 268 266 263 258 252 245 239 233
291 297 299 299 299 297 296 297 300 301 300 299 297 295 294 293 292 290 287 284 280 276 273 271 270 269 267 266 265 265 264 265 265 264 261 260 260 260 258 253 247 242 239
286 290 292 290 290 291 292 294 296 298 297 297 297 295 294 293 291 289 286 283 280 277 274 271 269 267 265 263 262 261 260 261 261 262 261 260 258 257 257 255 251 244 241
283 284 284 286 287 287 288 290 291 293 293 293 293 293 293 291 289 286 284 282 280 277 274 271 269 267 265 263 262 260 258 258 260 260 261 260 258 256 255 254 252 249 244
283 284 285 287 288 289 289 288 288 289 289 288 288 288 288 287 285 283 281 280 277 276 274 272 269 266 265 264 261 259 257 256 257 258 260 260 258 256 254 252 251 251 247
284 286 287 289 290 290 289 288 288 289 288 287 286 285 284 283 281 280 278 276 275 273 272 272 269 267 266 265 262 259 256 256 255 256 258 260 260 258 255 251 250 249 249
287 288 287 289 290 290 289 290 290 288 287 287 286 283 282 280 278 276 275 273 272 271 269 269 268 267 265 264 262 259 256 255 255 255 257 259 259 259 255 251 250 249 249
287 286 287 288 289 289 289 289 290 289 286 286 286 285 282 278 276 273 272 270 269 268 267 266 266 265 264 263 261 259 257 255 254 254 254 254 255 255 253 253 253 253 250
285 285 285 286 287 288 290 290 288 289 290 288 286 287 285 280 275 273 271 269 266 266 265 264 262 262 262 261 258 258 256 253 253 253 253 253 253 254 253 254 254 255 255
282 283 284 286 287 287 290 292 290 289 288 288 287 287 286 283 278 274 270 268 267 265 263 262 260 258 259 258 256 256 254 253 252 251 252 253 254 254 253 253 256 256 256
278 280 282 284 286 289 290 291 293 290 287 286 285 286 286 282 278 274 271 266 264 262 262 260 256 255 255 255 253 253 252 253 251 250 251 252 253 252 252 252 253 254 255
276 279 280 284 285 287 289 289 290 291 290 289 288 287 286 283 278 275 273 267 264 261 259 256 254 254 255 254 252 250 250 250 250 249 249 249 250 249 249 249 250 251 252
277 279 281 284 285 287 289 289 290 290 289 289 290 290 289 286 280 275 274 269 264 261 255 253 253 252 252 252 252 250 249 248 247 246 245 244 244 244 246 246 248 249 251
280 282 284 285 287 287 288 288 288 288 286 287 287 289 289 286 282 276 275 270 263 259 254 252 251 248 249 250 251 250 248 247 246 243 241 239 239 240 242 243 244 246 249
284 285 286 287 287 285 286 286 285 285 284 284 285 287 288 286 283 276 274 269 262 258 255 250 246 245 247 249 248 247 247 245 243 240 237 236 236 238 240 241 242 244 247
286 285 286 289 287 286 286 285 285 284 284 285 286 286 286 284 284 278 273 267 262 257 253 250 246 245 246 245 244 244 243 242 239 237 235 234 234 236 238 239 241 243 247
288 288 289 290 289 288 287 286 286 285 284 284 284 283 282 281 279 276 270 266 263 258 252 251 250 246 243 242 242 242 240 240 238 236 234 233 232 233 236 236 237 241 247
292 292 292 292 291 289 288 286 285 285 284 283 281 280 279 277 276 274 268 264 261 254 252 251 247 245 242 240 241 239 238 238 236 234 232 231 231 232 234 235 236 239 246
295 294 293 292 291 289 288 286 285 284 283 282 280 278 276 274 272 269 267 263 258 254 251 250 249 246 242 240 241 240 238 236 234 232 230 230 230 231 233 234 235 239 245
296 295 294 293 291 289 288 287 286 285 284 282 281 279 276 273 270 266 262 260 257 253 250 248 248 246 242 241 241 240 237 235 233 231 229 228 229 230 231 232 234 238 243
Height
5924 5924 5923 5923 5922 5921 5920 5920 5920 5919 5918 5918 5916 5915 5914 5913 5912 5911 5910 5909 5909 5908 5907 5907 5906 5905 5905 5904 5903 5903 5902 5901 5900 5900 5900 5899 5899 5899 5898 5898 5899 5899 5899
5923 5922 5922 5922 5921 5920 5920 5919 5919 5918 5918 5917 5916 5915 5914 5913 5912 5911 5910 5910 5909 5908 5908 5907 5906 5906 5905 5904 5904 5903 5902 5902 5901 5901 5900 5900 5900 5899 5900 5899 5900 5900 5900
5921 5920 5920 5920 5920 5919 5919 5918 5918 5918 5917 5916 5915 5914 5913 5912 5911 5911 5910 5909 5909 5908 5907 5907 5906 5906 5905 5904 5904 5903 5903 5902 5902 5901 5901 5900 5900 5900 5900 5900 5900 5901 5901
5919 5919 5919 5919 5919 5918 5918 5918 5917 5916 5916 5915 5914 5913 5912 5911 5911 5910 5909 5908 5908 5907 5907 5906 5906 5905 5905 5904 5903 5903 5903 5902 5902 5901 5901 5900 5900 5900 5900 5901 5901 5901 5902
5918 5917 5917 5917 5917 5917 5917 5916 5916 5915 5914 5913 5912 5912 5911 5910 5909 5909 5908 5907 5907 5906 5906 5905 5905 5904 5904 5904 5903 5903 5902 5902 5901 5901 5901 5900 5900 5900 5901 5901 5901 5901 5902
5916 5915 5915 5915 5915 5915 5914 5914 5914 5913 5912 5911 5911 5910 5909 5909 5908 5907 5907 5906 5905 5905 5904 5904 5903 5903 5902 5902 5902 5902 5901 5901 5901 5901 5900 5900 5900 5900 5900 5901 5901 5901 5902
5914 5913 5913 5913 5913 5912 5912 5912 5911 5911 5910 5909 5909 5908 5907 5907 5906 5905 5905 5904 5903 5903 5902 5902 5901 5901 5901 5900 5900 5900 5900 5900 5900 5900 5900 5900 5900 5900 5900 5900 5900 5900 5901
5912 5911 5911 5911 5911 5911 5910 5910 5909 5908 5907 5907 5906 5905 5904 5904 5903 5903 5902 5901 5901 5900 5900 5899 5899 5898 5898 5898 5898 5898 5898 5898 5898 5898 5898 5898 5899 5898 5899 5899 5899 5899 5900
5910 5910 5909 5909 5908 5908 5907 5907 5906 5905 5904 5903 5902 5902 5901 5900 5900 5899 5898 5898 5897 5897 5896 5896 5896 5895 5895 5895 5895 5895 5895 5895 5895 5895 5896 5896 5896 5897 5897 5897 5897 5897 5898
5908 5908 5907 5906 5906 5905 5904 5903 5902 5901 5900 5899 5898 5897 5897 5896 5895 5894 5894 5893 5892 5892 5892 5892 5892 5891 5891 5891 5891 5892 5892 5891 5892 5892 5892 5893 5893 5894 5894 5894 5895 5895 5895
5906 5905 5904 5904 5903 5902 5901 5899 5898 5897 5895 5894 5893 5892 5891 5890 5889 5889 5888 5887 5887 5886 5886 5886 5887 5886 5886 5886 5886 5887 5887 5887 5888 5888 5888 5889 5889 5890 5890 5891 5891 5891 5892
5904 5903 5902 5901 5900 5898 5897 5895 5893 5892 5890 5888 5887 5886 5885 5884 5883 5882 5882 5881 5880 5880 5880 5880 5880 5880 5880 5881 5881 5881 5882 5883 5883 5883 5883 5884 5884 5885 5886 5886 5887 5888 5888
5900 5899 5898 5897 5895 5894 5892 5890 5888 5887 5885 5883 5881 5879 5877 5876 5875 5874 5874 5873 5873 5872 5872 5873 5873 5874 5874 5874 5875 5875 5876 5877 5878 5878 5878 5879 5879 5880 5880 5881 5882 5883 5884
5896 5895 5894 5892 5890 5888 5887 5885 5883 5880 5878 5876 5874 5872 5870 5868 5867 5865 5865 5865 5864 5865 5865 5865 5866 5867 5867 5868 5868 5869 5870 5871 5872 5873 5873 5874 5874 5875 5875 5876 5877 5878 5879
5892 5890 5888 5886 5885 5882 5880 5878 5876 5874 5871 5868 5866 5864 5861 5859 5858 5856 5856 5856 5856 5856 5857 5857 5858 5859 5860 5861 5861 5863 5864 5865 5866 5867 5868 5869 5869 5870 5871 5871 5872 5873 5874
5886 5884 5882 5880 5878 5876 5874 5871 5868 5866 5864 5861 5859 5856 5853 5850 5849 5848 5847 5847 5847 5847 5847 5848 5849 5850 5852 5854 5855 5856 5857 5858 5859 5861 5862 5863 5865 5865 5866 5867 5867 5868 5869
5880 5878 5876 5874 5872 5869 5866 5864 5861 5858 5855 5853 5850 5847 5844 5841 5840 5838 5837 5837 5837 5837 5837 5839 5841 5842 5844 5846 5848 5849 5850 5852 5853 5855 5856 5858 5859 5860 5861 5862 5863 5864 5865
5874 5872 5869 5867 5864 5861 5858 5855 5852 5850 5847 5844 5842 5839 5836 5833 5830 5829 5828 5827 5827 5827 5828 5830 5832 5834 5836 5838 5840 5842 5844 5845 5847 5849 5850 5852 5853 5854 5856 5857 5858 5859 5860
5867 5865 5862 5859 5856 5853 5850 5846 5844 5841 5839 5836 5834 5831 5828 5825 5822 5820 5819 5817 5817 5818 5819 5821 5824 5826 5829 5831 5833 5835 5837 5838 5840 5843 5845 5846 5847 5849 5851 5852 5853 5855 5856
5859 5856 5853 5850 5847 5844 5840 5838 5835 5832 5830 5828 5825 5822 5819 5816 5813 5811 5810 5809 5809 5809 5810 5813 5815 5818 5821 5823 5826 5828 5830 5832 5834 5836 5838 5840 5842 5844 5845 5847 5849 5850 5851
5850 5847 5844 5840 5837 5833 5831 5828 5825 5823 5821 5818 5816 5813 5810 5808 5805 5802 5801 5801 5801 5801 5802 5804 5807 5810 5813 5816 5819 5821 5824 5825 5828 5830 5832 5834 5836 5838 5840 5842 5844 5845 5847
5841 5837 5834 5830 5826 5823 5820 5817 5815 5812 5810 5808 5806 5804 5801 5799 5796 5794 5793 5793 5793 5794 5795 5796 5798 5801 5804 5807 5810 5813 5816 5819 5821 5823 5826 5828 5831 5833 5835 5837 5839 5841 5842
5831 5828 5824 5821 5817 5814 5811 5808 5805 5802 5800 5798 5796 5794 5792 5790 5788 5787 5785 5785 5784 5785 5786 5788 5790 5793 5795 5799 5802 5805 5808 5811 5814 5817 5820 5822 5825 5827 5830 5832 5834 5836 5838
5823 5819 5815 5811 5808 5804 5801 5797 5794 5791 5788 5786 5784 5783 5781 5779 5778 5777 5776 5776 5776 5777 5778 5780 5781 5784 5787 5790 5793 5796 5800 5803 5807 5810 5814 5816 5819 5821 5824 5827 5829 5831 5833
5814 5810 5806 5802 5797 5793 5789 5785 5782 5779 5776 5773 5771 5770 5769 5768 5767 5767 5767 5767 5767 5768 5769 5771 5773 5775 5778 5781 5785 5788 5792 5795 5799 5803 5806 5810 5813 5815 5818 5821 5824 5826 5828
5805 5800 5796 5791 5787 5782 5777 5773 5769 5765 5762 5760 5757 5756 5755 5754 5754 5754 5755 5756 5756 5758 5759 5761 5763 5766 5769 5772 5775 5779 5783 5787 5790 5795 5798 5802 5806 5809 5812 5815 5818 5820 5822